Home   Weather   Porto Alegre   Past weeks

Flag for Brazil Past Weather in Porto Alegre, Rio Grande do Sul, Brazil — Yesterday and Last 2 Weeks

Now
68 °F

Scattered clouds.


Feels Like: 68 °F
Forecast: 52 / 69 °F
Wind: 17 mph from Southeast

Location: Porto Alegre Aero-Porto

Current Time: Sep 30, 2016 at 12:23:32 PM

Latest Report: Sep 30, 2016 at 12:00 PM


Visibility: N/A

Pressure: 30.12 "Hg

Humidity: 40%

Dew Point: 43 °F

Location of Porto AlegreLocation

Past Weather in Porto Alegre — Graph

°F

Porto Alegre Temperature Yesterday

Maximum temperature yesterday: 68 °F (at 2:00 PM)
Minimum temperature yesterday: 55 °F (at 4:00 AM)
Average temperature yesterday: 61 °F

High & Low Weather Summary for the Past Weeks

 TemperatureHumidityPressure
High81 °F (Sep 17, 3:00 PM)94% (Sep 16, 4:00 AM)30.24 "Hg (Sep 16, 4:00 AM)
Low48 °F (Sep 16, 4:00 AM)30% (Sep 17, 5:00 PM)29.86 "Hg (Sep 17, 4:00 PM)
Average61 °F70%30.11 "Hg
* Reported Sep 15 11:00 AM — Sep 30 11:00 AM, Porto Alegre, Weather by CustomWeather, © 2016

Note: Actual official high and low records may vary slightly from our data, if they occured in-between our weather recording intervals... More about our weather records

Advertising

Porto Alegre Weather History for the Previous 24 Hours

Scroll right to see more
 ConditionsComfort  
Time TempWeatherWind HumidityBarometerVisibility
11:00 AM
Fri, Sep 30
68 °FScattered clouds.17 mph43%30.12 "HgN/A
10:00 AM64 °FScattered clouds.15 mph56%30.12 "HgN/A
9:00 AM61 °FPassing clouds.13 mph72%30.15 "HgN/A
8:00 AM57 °FSunny.7 mph82%30.15 "Hg10 mi
7:00 AM52 °FPassing clouds.3 mph94%30.15 "HgN/A
6:00 AM48 °FClear.3 mph94%30.12 "Hg10 mi
5:00 AM48 °FClear.1 mph94%30.12 "Hg10 mi
4:00 AM48 °FClear.1 mph94%30.12 "Hg10 mi
3:00 AM48 °FClear.5 mph87%30.12 "Hg10 mi
2:00 AM50 °FClear.7 mph88%30.12 "Hg10 mi
1:00 AM52 °FClear.8 mph82%30.15 "Hg10 mi
12:00 AM54 °FClear.7 mph77%30.15 "Hg10 mi
11:00 PM
Thu, Sep 29
57 °FClear.10 mph67%30.15 "Hg10 mi
10:00 PM57 °FClear.12 mph63%30.15 "Hg10 mi
9:00 PM59 °FPassing clouds.10 mph59%30.15 "HgN/A
8:00 PM59 °FClear.10 mph59%30.15 "Hg10 mi
7:00 PM61 °FPassing clouds.9 mph52%30.15 "HgN/A
6:00 PM63 °FPassing clouds.13 mph45%30.12 "HgN/A
5:00 PM64 °FPassing clouds.13 mph46%30.12 "HgN/A
4:00 PM66 °FPassing clouds.13 mph37%30.09 "HgN/A
3:00 PM66 °FPassing clouds.13 mph37%30.12 "HgN/A
2:00 PM68 °FScattered clouds.15 mph40%30.12 "HgN/A
1:00 PM66 °FPartly sunny.13 mph49%30.12 "HgN/A
12:00 PM66 °FPartly sunny.13 mph49%30.15 "HgN/A
Weather by CustomWeather, © 2016

See weather overviewHow to use our weather pages